Powrót do katalogu

IRNSS 1I

AktywnyNawigacjaGEO
NORAD 43286·PAYLOAD·🇮🇳 India

Wystrzelony Apr 11, 2018 z Satish Dhawan Space Centre

Loading…

TLE

ŚwieżeSource: CelesTrak SupGP

Epoka: Sep 13, 2026, 23:59 UTC

1 43286C 18035A   26256.99979167  .00000155  00000+0  00000+0 0  2563
2 43286  28.9602  72.8115 0020824 178.1099 157.1085  1.00271978    10

Śledź IRNSS 1I w czasie rzeczywistym z AllMySat

Download on the App Store